sat.trackr.live / text

‹ back to catalog

STARLINK-31496

NORAD 59211 · 2024-046L

PAYLOAD ACTIVE UNKNOWN

§ Identity

Operator
Country
US
Launch date
2024-03-11
Launch site
AFWTR
Launch vehicle
Mass (kg)
RCS (m²)

Purposes: comms

External: N2YO · Heavens-Above · Gunter

§ Orbital elements

Epoch: 2026-05-25T05:01:29.292384Z

Period
94.11 min
Inclination
53.1595°
Eccentricity
0.0001199
Mean motion
15.30194378 rev/d
Perigee alt
474.4 km
Apogee alt
476.1 km
Semi-major
6,853.4 km
B*
6.7796e-5
RAAN
147.2334°
Arg perigee
89.6819°
Mean anomaly
270.4319°
Rev number
12,493

§ Raw data

STARLINK-314961 59211U 24046L   26145.20936681  .00001649  00000+0  67796-4 0  99952 59211  53.1595 147.2334 0001199  89.6819 270.4319 15.30194378124939

JSON: /api/v1/satellites/59211 · /tle

For live sub-satellite position, see the globe view (requires WebGL).

§ Visibility from observer

Set your observer location to see the next 7 days of passes ≥ 10°. The values pass through the URL so the page stays shareable.

No JS? Fill the form by hand. The geolocation button needs JavaScript.